Flag for Switzerland Weather past 2 weeks in Sion, Valais, Switzerland

Now
36 °F

Chilly.


Feels Like: 34 °F
Forecast: 30 / 53 °F
Wind: 3 mph from East

Location: Sion

Current Time: Dec 21, 2014 at 4:26:07 AM

Latest Report: Dec 21, 2014 at 3:00 AM


Visibility: N/A

Pressure: 30.55 "Hg

Humidity: 80%

Dew point: 31 °F

Location of SionLocation

Historic Weather in Sion — Graph

°F

Sion temperature yesterday

Maximum temperature yesterday: 51 °F (at 2:00 PM)
Minimum temperature yesterday: 42 °F (at 12:00 AM)
Average temperature yesterday: 45 °F

Past Weeks' High & Low Weather Summary

 TemperatureHumidityPressure
High51 °F (Dec 20, 2:00 PM)99% (Dec 18, 10:00 PM)30.55 "Hg (Dec 18, 10:00 PM)
Low26 °F (Dec 10, 2:00 AM)45% (Dec 11, 7:00 PM)29.90 "Hg (Dec 16, 3:00 PM)
Average39 °F80%30.20 "Hg
* Reported Dec 6 3:00 AM — Dec 21 3:00 AM, Sion, Weather by CustomWeather, © 2014

Note: Actual official high and low records may vary slightly from our data, if they occured in-between our weather recording intervals... More about our weather records

Advertising

Sion weather history for previous 24 hours

 ConditionsComfort  
Time TempWeatherWind HumidityBarometerVisibility
3:00 AM
Dec 21
36 °FChilly.3 mph80%30.55 "HgN/A
2:00 AM37 °FChilly.1 mph78%30.53 "HgN/A
1:00 AM39 °FClear.2 mph73%30.52 "Hg9 mi
12:00 AM40 °FQuite cool.2 mph74%30.50 "HgN/A
11:00 PM
Dec 20
42 °FQuite cool.6 mph71%30.47 "HgN/A
10:00 PM44 °FClear.7 mph68%30.46 "Hg12 mi
9:00 PM44 °FQuite cool.8 mph70%30.43 "HgN/A
8:00 PM45 °FCool.15 mph71%30.40 "HgN/A
7:00 PM45 °FClear.2 mph75%30.38 "Hg16 mi
6:00 PM46 °FCool.6 mph82%30.36 "HgN/A
5:00 PM49 °FCool.6 mph75%30.34 "HgN/A
4:00 PM50 °FPassing clouds.6 mph72%30.32 "Hg16 mi
3:00 PM50 °FCool.3 mph76%30.31 "HgN/A
2:00 PM51 °FCool.2 mph75%30.31 "HgN/A
1:00 PM50 °FCool.2 mph80%30.35 "HgN/A
12:00 PM48 °FCool.3 mph87%30.37 "HgN/A
11:00 AM45 °FCool.1 mph96%30.40 "HgN/A
10:00 AM43 °FPartly sunny.1 mph98%30.40 "Hg9 mi
9:00 AM43 °FQuite cool.2 mph97%30.40 "HgN/A
8:00 AM42 °FQuite cool.1 mph99%30.39 "HgN/A
7:00 AM42 °FQuite cool.2 mph98%30.38 "HgN/A
6:00 AM43 °FQuite cool.2 mph98%30.38 "HgN/A
5:00 AM43 °FQuite cool.1 mph98%30.38 "HgN/A
4:00 AM43 °FLight rain. Overcast.1 mph97%30.38 "Hg9 mi
Weather by CustomWeather, © 2014

See weather overviewHow to use our weather pages